EW7119 Weather Reports


time (UTC)temp
C
wind
direction
speed
KPH
gust
KPH
rain 1hr
cm
rain 24hr
cm
rain mn
cm
humidity
%
barometer
mb
20260509054558 7 241 1.6 11.3 0.00 0.00 0.00 61 1005.3
20260509053118 7 165 4.8 12.9 0.00 0.00 0.00 58 1005.4
20260509051626 7 176 4.8 16.1 0.00 0.00 0.00 58 1005.4
20260509050045 7 134 6.4 19.3 0.00 0.00 0.00 59 1005.5
20260509044552 7 208 4.8 14.5 0.00 0.00 0.00 59 1005.5
20260509043101 7 159 1.6 11.3 0.00 0.00 0.00 59 1005.7
20260509041606 7 140 4.8 11.3 0.00 0.00 0.00 59 1005.6
20260509040118 7 170 3.2 11.3 0.00 0.00 0.00 60 1005.4
20260509034616 8 157 1.6 8.0 0.00 0.00 0.00 59 1005.4
20260509033135 8 146 1.6 12.9 0.00 0.00 0.00 57 1005.0
20260509031601 9 144 6.4 14.5 0.00 0.00 0.00 54 1004.9
20260509030100 9 202 3.2 6.4 0.00 0.00 0.00 52 1004.7
20260509024606 10 148 3.2 11.3 0.00 0.00 0.00 53 1004.3
20260509023041 10 175 3.2 12.9 0.00 0.00 0.00 49 1004.0
20260509021613 10 138 9.7 22.5 0.00 0.00 0.00 50 1004.0
20260509020120 10 128 14.5 24.1 0.00 0.00 0.00 52 1003.7
20260509014607 10 129 14.5 32.2 0.00 0.00 0.00 53 1003.7
20260509013123 10 106 11.3 19.3 0.00 0.00 0.00 53 1003.8
20260509011606 10 140 9.7 17.7 0.00 0.00 0.00 51 1003.9
20260509004605 11 113 8.0 19.3 0.00 0.00 0.00 50 1003.3
20260509003110 11 134 11.3 25.7 0.00 0.00 0.00 49 1003.3
20260509001552 12 134 8.0 22.5 0.00 0.00 0.00 47 1003.3
20260509000044 13 159 9.7 19.3 0.00 0.00 0.00 45 1003.3
20260508234550 13 105 9.7 19.3 0.00 0.00 0.00 45 1003.0
20260508233104 13 152 9.7 19.3 0.00 0.00 0.00 45 1003.1
20260508231603 13 145 12.9 24.1 0.00 0.00 0.00 43 1003.0
20260508230117 14 101 11.3 20.9 0.00 0.00 0.00 42 1003.2
20260508224621 15 184 6.4 17.7 0.00 0.00 0.00 39 1003.1
20260508223012 15 217 6.4 19.3 0.00 0.00 0.00 37 1003.4
20260508221513 16 156 6.4 14.5 0.00 0.00 0.00 36 1003.5
20260508220027 16 170 8.0 16.1 0.00 0.00 0.00 36 1003.6
20260508214523 16 138 4.8 14.5 0.00 0.00 0.00 34 1003.7
20260508213028 16 217 3.2 11.3 0.00 0.00 0.00 39 1004.0
20260508211550 16 266 1.6 11.3 0.00 0.00 0.00 36 1004.2
20260508210042 16 157 4.8 12.9 0.00 0.00 0.00 36 1004.1
20260508204527 16 281 4.8 12.9 0.00 0.00 0.00 37 1004.4
20260508203032 16 276 3.2 14.5 0.00 0.00 0.00 31 1004.8
20260508201505 15 280 3.2 12.9 0.00 0.00 0.00 30 1004.9
20260508200025 15 244 6.4 14.5 0.00 0.00 0.00 28 1005.2
20260508194617 13 67 1.6 4.8 0.00 0.00 0.00 32 1005.2
20260508193122 13 146 3.2 11.3 0.00 0.00 0.00 30 1005.6
20260508191618 14 134 4.8 17.7 0.00 0.00 0.00 29 1005.7
20260508190011 13 234 3.2 19.3 0.00 0.00 0.00 41 1005.8
20260508184625 14 319 6.4 19.3 0.00 0.00 0.00 31 1005.9
20260508183016 14 311 11.3 25.7 0.00 0.00 0.00 25 1006.0
20260508181515 13 309 8.0 19.3 0.00 0.00 0.00 27 1006.4
20260508180040 13 282 4.8 17.7 0.00 0.00 0.00 29 1006.8
20260508174521 12 290 3.2 11.3 0.00 0.00 0.00 30 1006.8
20260508173041 12 297 6.4 19.3 0.00 0.00 0.00 30 1006.9
20260508171619 12 258 1.6 11.3 0.00 0.00 0.00 34 1007.0
20260508170109 12 292 6.4 12.9 0.00 0.00 0.00 32 1007.2
20260508164616 11 281 4.8 14.5 0.00 0.03 0.00 35 1007.5
20260508163124 11 298 8.0 16.1 0.00 0.03 0.00 35 1007.6
20260508161604 10 238 4.8 12.9 0.00 0.03 0.00 40 1007.6
20260508160104 9 249 1.6 12.9 0.00 0.03 0.00 42 1007.9
20260508154607 9 275 3.2 12.9 0.00 0.05 0.00 43 1007.9
20260508153110 9 80 1.6 12.9 0.00 0.05 0.00 43 1007.8
20260508151618 8 296 4.8 14.5 0.00 0.05 0.00 43 1007.9
20260508150106 8 295 6.4 14.5 0.00 0.05 0.00 46 1007.9
20260508144608 7 260 4.8 14.5 0.00 0.05 0.00 47 1008.0
20260508143121 7 342 4.8 9.7 0.00 0.05 0.00 48 1008.0
20260508141510 6 335 3.2 14.5 0.00 0.05 0.00 51 1008.1
20260508140124 6 252 1.6 4.8 0.00 0.05 0.00 55 1008.1
20260508134622 6 305 3.2 8.0 0.00 0.05 0.00 54 1008.0
20260508133017 6 348 1.6 6.4 0.00 0.05 0.00 57 1008.1
20260508131544 5 61 0.0 0.0 0.00 0.05 0.00 61 1008.2
20260508130106 3 86 0.0 0.0 0.00 0.05 0.00 66 1008.3
20260508124625 2 86 0.0 0.0 0.00 0.05 0.00 70 1008.2
20260508123109 2 86 0.0 1.6 0.00 0.05 0.00 69 1008.2
20260508121550 2 74 0.0 0.0 0.00 0.05 0.00 69 1008.0
20260508120013 2 66 0.0 0.0 0.00 0.05 0.00 71 1008.0
20260508114623 2 56 0.0 0.0 0.00 0.05 0.00 70 1007.9
20260508113128 2 56 0.0 0.0 0.00 0.05 0.00 71 1007.9
20260508111632 2 56 0.0 0.0 0.00 0.05 0.00 71 1007.9
20260508110026 3 25 0.0 0.0 0.00 0.05 0.00 69 1007.9
20260508104622 3 25 0.0 0.0 0.00 0.05 0.00 69 1007.9
20260508103035 3 25 0.0 0.0 0.00 0.05 0.00 70 1008.0
20260508101610 3 21 0.0 0.0 0.00 0.05 0.00 69 1008.2
20260508100131 3 21 0.0 0.0 0.00 0.05 0.00 69 1008.4
20260508094524 3 21 0.0 0.0 0.00 0.05 0.00 68 1008.4
20260508093056 4 328 0.0 0.0 0.00 0.05 0.00 67 1008.5
20260508091616 4 340 0.0 0.0 0.00 0.05 0.00 65 1008.8
20260508090056 5 340 0.0 0.0 0.00 0.05 0.00 64 1009.0
20260508084540 4 330 0.0 1.6 0.00 0.05 0.00 65 1009.1
20260508083028 4 330 1.6 4.8 0.00 0.05 0.00 63 1009.2
20260508081520 4 261 0.0 0.0 0.00 0.05 0.00 62 1009.6
20260508080040 4 261 1.6 4.8 0.00 0.05 0.00 62 1009.6
20260508074621 4 27 3.2 9.7 0.00 0.05 0.00 62 1009.7
20260508073123 5 360 0.0 0.0 0.00 0.05 0.00 61 1009.9
20260508071619 5 360 0.0 0.0 0.00 0.05 0.00 61 1010.2
20260508070012 5 360 0.0 3.2 0.00 0.05 0.00 60 1010.5
20260508064619 5 317 0.0 3.2 0.00 0.05 0.00 61 1010.7
20260508063119 5 317 0.0 4.8 0.00 0.05 0.00 61 1010.9
20260508061607 5 315 3.2 11.3 0.00 0.05 0.00 59 1011.1
20260508060132 5 313 0.0 6.4 0.00 0.05 0.00 57 1011.1